Regional Weather Roundup
Issued by NWS

Home | Current Version | Previous Version | Graphics & Text | Print | Product List | Glossary On
Versions: 1 2 3 4 5 6 7 8 9 10 11 12 13 14 15 16 17 18 19 20 21 22 23 24 25 26 27 28 29 30 31 32 33 34 35 36 37 38 39 40 41 42 43 44 45 46 47 48 49 50
000
ASUS43 KDMX 012207
RWRIA

WEATHER ROUNDUP FOR IOWA
NATIONAL WEATHER SERVICE DES MOINES IA
500 PM CDT WED APR 01 2015

NOTE: "FAIR" INDICATES FEW OR NO CLOUDS BELOW 12,000 FEET WITH NO
SIGNIFICANT WEATHER AND/OR OBSTRUCTIONS TO VISIBILITY.

* - THESE STATIONS ARE NOT NWS STATIONS...THUS NOT UNDER NWS
QUALITY CONTROL.  THEY ALSO DO NOT REPORT WEATHER SUCH
AS PRECIPITATION OR FOG.

IAZ001>003-012>014-020>022-031>034-043>046-012300-
   NORTHWEST IOWA

CITY           SKY/WX    TMP DP  RH WIND       PRES   REMARKS
CARROLL *      SUNNY     82  50  32 S33G40    29.57F HX  81
CHEROKEE *     MOSUNNY   82  46  28 S26G33    29.54F HX  81
DENISON *      SUNNY     82  46  28 S26G43    29.55F HX  81
LE MARS *      SUNNY     84  45  24 SW25G35   29.51F HX  82
ORANGE CITY *  SUNNY     82  37  20 S25       29.52F HX  80
SHELDON *      SUNNY     82  45  26 S32G40    29.50F HX  80
SIOUX CITY     MOSUNNY   84  43  23 S28G39    29.53F HX  81
SPENCER        MOSUNNY   82  45  27 S26G39    29.53F HX  80
STORM LAKE *   SUNNY     82  48  30 SW29G47   29.56F HX  81
$$

IAZ055>058-069>071-079>083-090>094-012300-
   SOUTHWEST IOWA

CITY           SKY/WX    TMP DP  RH WIND       PRES   REMARKS
ATLANTIC *     SUNNY     81  50  34 S26G39    29.61F HX  80
AUDUBON *      SUNNY     81  46  30 S25G36    29.62F HX  80
CLARINDA *     SUNNY     81  52  36 S24G31    29.64F HX  80
COUNCIL BLFS * SUNNY     82  48  30 S28G36    29.59F HX  81
CRESTON *      SUNNY     79  50  36 S30G40    29.67F
HARLAN  *      SUNNY     82  45  26 S31G38    29.61F HX  80
LAMONI         SUNNY     79  50  36 S24G38    29.70F
RED OAK *      SUNNY     82  48  30 S28G38    29.61F HX  81
SHENANDOAH *   SUNNY     82  48  30 S29G41    29.61F HX  81
$$

IAZ047>049-059>061-072>074-084-012300-
   CENTRAL IOWA

CITY           SKY/WX    TMP DP  RH WIND       PRES   REMARKS
AMES           SUNNY     80  39  23 S28G35    29.65F
ANKENY *       SUNNY     81  43  26 S25G37    29.65F
CHARITON *     SUNNY     79  43  27 S29G36    29.70F
DES MOINES     MOSUNNY   82  41  23 S29G38    29.67F HX  80
GRINNELL*      SUNNY     79  36  21 S24G32    29.71S
KNOXVILLE *    SUNNY     79  39  24 S25G35    29.68F
MARSHALLTOWN   SUNNY     79  35  20 S26G37    29.66F
PELLA *        SUNNY     79  46  31 S18G29    29.71F
PERRY *          N/A     81  45  28 S33G39    29.62F
$$

IAZ004>006-015-016-023>025-035-036-012300-
   NORTH CENTRAL IOWA

CITY           SKY/WX    TMP DP  RH WIND       PRES   REMARKS
ALGONA *       SUNNY     81  41  24 S32G45    29.56F
CLARION *      SUNNY     81  37  21 S37G44    29.59F
ESTHERVILLE    PTSUNNY   81  43  26 S32G45    29.52F
FORT DODGE *   SUNNY     81  41  24 S25G41    29.60F
MASON CITY     PTSUNNY   79  37  22 S26G38    29.61F
FOREST CITY *  SUNNY     79  34  19 S25G38    29.60F
IOWA FALLS *     N/A     79  36  21 S31       29.65F
$$

IAZ007>011-017>019-026>030-037>042-050>054-066-012300-
   NORTHEAST IOWA

CITY           SKY/WX    TMP DP  RH WIND       PRES   REMARKS
CEDAR RAPIDS   SUNNY     77  33  20 S24G31    29.73F
CHARLES CITY * SUNNY     77  34  20 S31G41    29.63F
CLINTON *      SUNNY     79  36  21 S28       29.81F
DECORAH *      SUNNY     77  34  20 S20G29    29.66F
DUBUQUE        SUNNY     77  34  21 S26G37    29.75F
MONTICELLO *   SUNNY     77  32  19 S26G38    29.75F
OELWEIN *      SUNNY     77  36  22 S32G40    29.70F
WATERLOO       SUNNY     79  34  19 S26G36    29.66F
$$

IAZ064-065-067-068-078-012300-
   EAST CENTRAL IOWA

CITY           SKY/WX    TMP DP  RH WIND       PRES   REMARKS
DAVENPORT      SUNNY     78  30  17 S29G36    29.80F
IOWA CITY      SUNNY     78  34  20 S26G37    29.77F
MT. PLEASANT * SUNNY     77  32  19 SE24G31   29.79F
MUSCATINE *    SUNNY     79  32  18 S29       29.77F
QUAD CITIES    SUNNY     78  32  18 S21G32    29.79F
$$

IAZ062-063-075>077-085>089-095>099-012300-
   SOUTHEAST IOWA

CITY           SKY/WX    TMP DP  RH WIND       PRES   REMARKS
BURLINGTON     MOSUNNY   77  36  22 S21G28    29.81F
FAIRFIELD *    SUNNY     77  34  20 S22G30    29.76F
FORT MADISON * SUNNY     75  36  23 S20G31    29.83R
KEOKUK *       SUNNY     77  36  22 S21G30    29.81S
OSKALOOSA *      N/A     77  37  24 S31G37    29.74F
CENTERVILLE *  SUNNY     77  45  31 S21G31    29.76S
OTTUMWA        SUNNY     77  38  24 S24G33    29.74F
WASHINGTON *   SUNNY     79  34  19 S23G37    29.76F
$$

ABBREVIATIONS USED IN REMARKS
   TC - TEMPERATURES IN CELSIUS
  WCI - WIND CHILL INDEX
   HX - HEAT INDEX
  VSB - VISIBILITY
$$




USA.gov is the U.S. government's official web portal to all federal, state and local government web resources and services.